Location: Newark
(60.0000°N, 100.0000°E)
Time: 00:01:45
(UTC+00:00)

N. Korean satellite - Pass Details

Date: 24 November 2019
Orbit: 455 x 507 km, 97.2° (Epoch: 14 December)

Event Time Altitude Azimuth Distance (km) Brightness Sun altitude
Rises 11:31:34 0° 213° (SSW) 2,594 10.8 -20.8°
Reaches altitude 10° 11:34:23 10° 237° (WSW) 1,721 10.2 -21.1°
Maximum altitude 11:36:36 15° 274° (W) 1,436 9.9 -21.4°
Drops below altitude 10° 11:38:50 10° 311° (NW) 1,734 9.9 -21.7°
Sets 11:41:42 0° 335° (NNW) 2,626 10.6 -22.0°
